[[{"header":{"parameterUnit":"m.s-1","parameterCategory":1,"la1":30.2992,"la2":30.254,"lo1":-89.0895,"lo2":-89.0443,"dy":0.0025,"dx":0.0025,"nx":19,"ny":19,"refTime":"2026-04-11T03:00:00:Z","depth":0,"parameterNumber":2,"parameterNumberName":"U-component_of_WINDS"},"data":[0,0,0,-1.5438,-1.5438,-1.5447,-1.5447,-1.5474,-1.5474,0,0,0,0,0,0,0,0,0,0,0,-1.5444,-1.5444,-1.5438,-1.5438,-1.5447,-1.5447,-1.5474,-1.5475,0,0,0,0,0,0,0,0,0,0,0,-1.5443,-1.5444,-1.5445,-1.5438,-1.5447,-1.5447,-1.5474,-1.5462,0,0,0,0,0,0,0,0,0,0,-1.5451,-1.5464,-1.5444,-1.5445,-1.5438,-1.5447,-1.5447,-1.5461,-1.5463,-1.5476,0,-1.549,0,-1.5483,-1.5477,-1.5477,0,0,0,-1.5432,-1.5463,-1.5457,-1.5445,-1.5439,-1.5447,-1.5441,-1.5462,-1.5464,-1.5479,-1.549,-1.5491,-1.5483,-1.5477,-1.5478,-1.5576,-1.5577,0,0,-1.5432,-1.545,-1.5456,-1.5459,-1.5458,-1.5441,-1.5442,-1.5463,-1.5477,-1.549,-1.5491,-1.5484,-1.5478,-1.5478,-1.5576,-1.5577,0,0,0,-1.5434,-1.545,-1.5444,-1.5458,-1.5459,-1.5442,-1.5442,-1.5476,-1.5472,-1.5492,-1.5484,-1.5478,-1.5478,-1.5575,-1.5576,-1.5631,0,0,0,-1.5434,-1.5451,-1.5444,-1.5455,-1.5459,-1.5467,-1.5456,-1.5471,-1.5473,-1.5484,-1.5478,-1.5479,-1.5574,-1.5575,-1.5628,-1.5654,0,0,0,-1.544,-1.5452,-1.5456,-1.5456,-1.5461,-1.5466,-1.5464,-1.5471,-1.5469,-1.5477,-1.5479,-1.5573,-1.5575,-1.5625,-1.5649,-1.5686,0,0,0,-1.5453,-1.5505,-1.5457,-1.5513,-1.5461,-1.55,-1.5464,-1.5492,-1.5506,-1.5478,-1.5574,-1.5576,-1.5624,-1.5646,-1.5683,-1.5721,-1.5739,0,0,-1.5529,-1.5515,-1.5546,-1.5504,-1.5557,-1.5497,-1.5558,-1.5554,-1.5538,-1.5565,-1.5567,-1.5629,-1.5649,-1.5686,-1.5828,-1.5842,0,0,0,-1.5577,-1.5599,-1.5609,-1.5623,-1.5621,-1.5622,-1.5606,-1.5605,-1.5626,-1.5555,-1.5651,-1.5663,-1.5684,-1.5701,-1.5713,-1.573,-1.5584,-1.5584,-1.5584,-1.5711,-1.5688,-1.5739,-1.5717,-1.5732,-1.5715,-1.5725,-1.572,-1.5693,-1.5716,-1.5724,-1.5813,-1.5834,-1.5843,-1.5861,-1.5741,-1.5742,-1.5742,-1.5742,-1.5822,-1.5851,-1.5813,-1.5849,-1.5825,-1.5855,-1.5842,-1.5821,-1.5847,-1.5805,-1.5822,-1.5779,-1.5859,-1.5873,-1.5746,-1.5745,-1.5745,-1.5744,-1.5744,-1.5909,-1.5919,-1.5916,-1.5934,-1.5951,-1.5928,-1.5954,-1.593,-1.5909,-1.5926,-1.5932,-1.5931,-1.5928,-1.593,-1.5931,-1.5931,-1.5931,-1.5931,-1.5932,-1.6,-1.5995,-1.6019,-1.6022,-1.6028,-1.6034,-1.6018,-1.6024,-1.6025,-1.6006,-1.6006,-1.5978,-1.587,-1.5844,-1.5936,-1.5936,-1.5935,-1.5934,-1.5934,-1.6122,-1.6091,-1.6129,-1.6135,-1.6137,-1.6156,-1.6126,-1.6141,-1.6142,-1.6156,-1.6123,-1.6047,-1.6032,-1.6022,-1.6,-1.6127,-1.6127,-1.6127,-1.6127,-1.6196,-1.6185,-1.6219,-1.6231,-1.6241,-1.6217,-1.6262,-1.6251,-1.6235,-1.6235,-1.6213,-1.6182,-1.6174,-1.6163,-1.615,-1.613,-1.6287,-1.6287,-1.6287,-1.6271,-1.626,-1.6302,-1.6285,-1.6285,-1.6285,-1.6327,-1.6344,-1.6319,-1.6293,-1.6235,-1.6228,-1.6178,-1.6163,-1.6137,-1.6117,-1.6079,0,0]},{"header":{"parameterUnit":"m.s-1","parameterCategory":1,"la1":30.2992,"la2":30.254,"lo1":-89.0895,"lo2":-89.0443,"dy":0.0025,"dx":0.0025,"nx":19,"ny":19,"refTime":"2026-04-11T03:00:00:Z","depth":0,"parameterNumber":3,"parameterNumberName":"V-component_of_WINDS"},"data":[0,0,0,1.3735,1.3736,1.3789,1.3789,1.3851,1.3852,0,0,0,0,0,0,0,0,0,0,0,1.3717,1.3717,1.3735,1.3736,1.3789,1.3789,1.3851,1.3852,0,0,0,0,0,0,0,0,0,0,0,1.3717,1.3717,1.3718,1.3736,1.3789,1.3789,1.3851,1.3813,0,0,0,0,0,0,0,0,0,0,1.3763,1.3744,1.3717,1.3718,1.3737,1.3789,1.3789,1.3811,1.3815,1.3826,0,1.3834,0,1.3844,1.3856,1.3856,0,0,0,1.3738,1.374,1.3757,1.3718,1.3737,1.3789,1.3766,1.3814,1.3818,1.3831,1.3835,1.3838,1.3845,1.3856,1.3857,1.3911,1.3912,0,0,1.3735,1.3725,1.3754,1.376,1.3752,1.3764,1.3767,1.3817,1.382,1.3836,1.3839,1.3846,1.3857,1.3857,1.3911,1.3912,0,0,0,1.3725,1.3723,1.3738,1.3757,1.3767,1.3765,1.3769,1.3818,1.3824,1.384,1.3847,1.3857,1.3858,1.3911,1.3911,1.3911,0,0,0,1.3724,1.3717,1.3737,1.3731,1.3766,1.3793,1.377,1.3821,1.3827,1.3847,1.3857,1.3858,1.3911,1.3911,1.3911,1.3913,0,0,0,1.3714,1.3716,1.3723,1.3731,1.3753,1.3793,1.3802,1.3822,1.3831,1.3856,1.3858,1.3911,1.3911,1.3911,1.3913,1.3925,0,0,0,1.3701,1.3722,1.3723,1.3748,1.3753,1.3792,1.3801,1.3831,1.3853,1.3857,1.3911,1.3911,1.3911,1.3912,1.3925,1.3935,1.3938,0,0,1.3721,1.3724,1.3739,1.3742,1.378,1.3785,1.3822,1.3851,1.3862,1.3894,1.3896,1.3911,1.3912,1.3925,1.3957,1.396,0,0,0,1.3743,1.3754,1.3766,1.3787,1.3809,1.3829,1.3854,1.3864,1.3892,1.3877,1.3919,1.392,1.3928,1.3933,1.3935,1.3943,1.3913,1.3913,1.3913,1.3757,1.3771,1.3798,1.3818,1.3838,1.3863,1.388,1.3899,1.3906,1.3916,1.3926,1.3944,1.395,1.3951,1.3959,1.3932,1.3932,1.3932,1.3932,1.3788,1.3807,1.3817,1.3847,1.3861,1.3886,1.3911,1.3916,1.3941,1.3937,1.3945,1.394,1.3953,1.3961,1.3932,1.3932,1.3932,1.3932,1.3932,1.38,1.3811,1.3824,1.3856,1.3879,1.3898,1.3922,1.3934,1.3945,1.3953,1.3965,1.3965,1.3967,1.3957,1.3958,1.3958,1.3958,1.3958,1.3958,1.3807,1.3822,1.3841,1.3868,1.3883,1.3904,1.393,1.3945,1.3964,1.3971,1.3971,1.3978,1.3952,1.3946,1.3959,1.3959,1.3958,1.3958,1.3958,1.3835,1.3831,1.3861,1.3876,1.3908,1.393,1.3945,1.3974,1.3988,1.4,1.4005,1.3984,1.3987,1.3985,1.398,1.4002,1.4002,1.4002,1.4002,1.3845,1.3848,1.3882,1.3905,1.393,1.3946,1.398,1.4,1.4019,1.4029,1.4027,1.4021,1.4019,1.4024,1.4021,1.4017,1.4047,1.4047,1.4047,1.3864,1.3869,1.3896,1.3916,1.3942,1.3964,1.3996,1.4023,1.4044,1.4049,1.4037,1.4035,1.4025,1.4021,1.4027,1.4023,1.4015,0,0]}]]